Location: Falkner
(32.6954°N, 86.0502°W)
Time: 12:33:12
(UTC+00:00)

Cosmos 968 Rocket - Pass Details

Date: 29 October 2020
Orbit: 741 x 770 km, 74.0° (Epoch: 04 December)

Event Time Altitude Azimuth Distance (km) Brightness Sun altitude
Rises 23:19:57 0° 357° (N) 3,224 6.6 -5.8°
Reaches altitude 10° 23:22:44 10° 10° (N) 2,290 5.7 -6.4°
Maximum altitude 23:26:59 25° 66° (ENE) 1,481 4.4 -7.2°
Drops below altitude 10° 23:31:12 10° 121° (ESE) 2,264 5.5 -8.1°
Sets 23:33:55 0° 134° (SE) 3,179 6.4 -8.7°
